This is the latest recevied weather packets stored in our database for station/object WA0GMH-1. If no packets are shown the sender has not sent any weather packets the latest 1 day(s).
| Time | Temp. | Humidity | Pressure | Rain* | Wind** | Luminosity | Snow |
|---|---|---|---|---|---|---|---|
| 1778028923 | 10° C | 67% | 1013.6 hPa | 0 mm | 0 m/s | - | - |
| 1778028520 | 10.56° C | 67% | 1013.6 hPa | 0 mm | 0 m/s | - | - |
| 1778028118 | 10.56° C | 67% | 1013.7 hPa | 0 mm | 0 m/s | - | - |
| 1778027716 | 11.11° C | 67% | 1013.6 hPa | 0 mm | 0 m/s | - | - |
| 1778027314 | 11.11° C | 67% | 1013.6 hPa | 0 mm | 0 m/s | - | - |
| 1778026911 | 11.11° C | 66% | 1013.5 hPa | 0 mm | 0 m/s | - | - |
| 1778026509 | 11.11° C | 66% | 1013.5 hPa | 0 mm | 0 m/s | - | - |
| 1778026107 | 11.67° C | 65% | 1013.4 hPa | 0 mm | 0 m/s | - | - |
| 1778025705 | 11.67° C | 64% | 1013.3 hPa | 0 mm | 0 m/s | - | - |
| 1778025302 | 11.67° C | 64% | 1013.4 hPa | 0 mm | 0 m/s | - | - |
| 1778024900 | 12.22° C | 63% | 1013.3 hPa | 0 mm | 0 m/s | - | - |
| 1778024498 | 12.78° C | 62% | 1013.3 hPa | 0 mm | 0 m/s | - | - |
| 1778024096 | 12.78° C | 63% | 1013.1 hPa | 0 mm | 0 m/s | - | - |
| 1778023693 | 12.78° C | 63% | 1013.3 hPa | 0 mm | 0 m/s | - | - |
| 1778023291 | 12.78° C | 62% | 1013.2 hPa | 0 mm | 0 m/s | - | - |
| 1778022889 | 12.78° C | 63% | 1013.2 hPa | 0 mm | 0 m/s | - | - |
| 1778022487 | 13.33° C | 62% | 1013.2 hPa | 0 mm | 0 m/s | - | - |
| 1778022084 | 13.89° C | 62% | 1013.2 hPa | 0 mm | 0 m/s | - | - |
| 1778021682 | 13.89° C | 62% | 1013.1 hPa | 0 mm | 0 m/s | - | - |
| 1778021280 | 14.44° C | 62% | 1013 hPa | 0 mm | 0 m/s | - | - |
| 1778020878 | 15° C | 61% | 1013.3 hPa | 0 mm | 0 m/s | - | - |
| 1778020475 | 15° C | 62% | 1013 hPa | 0 mm | 0 m/s | - | - |
| 1778020073 | 14.44° C | 62% | 1013.3 hPa | 0 mm | 0 m/s | - | - |
| 1778019671 | 14.44° C | 63% | 1013 hPa | 0 mm | 0 m/s | - | - |
| 1778018866 | 13.89° C | 63% | 1013.2 hPa | 0 mm | 0 m/s | - | - |
* Rain since midnight (hover to see other rain measurements)
** Current wind speed in m/s (hover to see current wind gust speed)